Regional Weather Roundup
Issued by NWS

Home | Current Version | Previous Version | Text Only | Print | Product List | Glossary Off
Versions: 1 2 3 4 5 6 7 8 9 10 11 12 13 14 15 16 17 18 19 20 21 22 23 24 25 26 27 28 29 30 31 32 33 34 35 36 37 38 39 40 41 42 43 44 45 46 47 48 49 50

000
ASUS43 KIND 122159
RWRIN

WEATHER ROUNDUP FOR INDIANA
NATIONAL WEATHER SERVICE INDIANAPOLIS IN
600 PM EDT SAT JUL 12 2014

NOTE: "FAIR" INDICATES FEW OR NO CLOUDS BELOW 12,000 FEET WITH NO
SIGNIFICANT WEATHER AND/OR OBSTRUCTIONS TO VISIBILITY.

* - STATION DOES NOT REPORT WEATHER SUCH AS PRECIPITATION OR FOG.

+ - STATION NOT QUALITY CONTROLLED BY THE NATIONAL WEATHER SERVICE.
    USE DATA WITH CAUTION...ESPECIALLY DEWPOINT AND RELATIVE
    HUMIDITY OBSERVATIONS.

INZ001>003-010>013-019-020-122300-
NORTHWEST INDIANA

CITY           SKY/WX    TMP DP  RH WIND       PRES   REMARKS
GARY /AIRPORT/ CLOUDY    79  72  78 S12G23    29.97F
RENSSELAER +   CLOUDY    77  73  88 S12G17    30.01F
VALPARAISO     CLOUDY    77  70  79 SW12      30.00F

$$

LMZ046-743>745-122300-
SOUTHERN LAKE MICHIGAN

STATION/POSITION TIME  TEMP WIND        PRES
                       AIR  DIR/SP/G
                 (UTC) (F)  (DEG/KT/KT) (MB)
MICHIGAN CITY    2100   76  190/ 13/ 18   N/A

$$

INZ004-005-014>016-021>024-122300-
NORTH CENTRAL INDIANA

CITY           SKY/WX    TMP DP  RH WIND       PRES   REMARKS
GOSHEN         PTSUNNY   78  69  73 S7        30.03F
SOUTH BEND     CLOUDY    78  70  76 S10       30.02S

$$

INZ006>009-017-018-025>027-122300-
NORTHEAST INDIANA

CITY           SKY/WX    TMP DP  RH WIND       PRES   REMARKS
ANGOLA *+      CLOUDY    75  70  83 W5        30.05S
FORT WAYNE     CLOUDY    79  66  64 SW17      30.05R

$$

INZ028-029-035-036-043>045-051>053-122300-
WEST CENTRAL INDIANA

CITY           SKY/WX    TMP DP  RH WIND       PRES   REMARKS
GREENCASTLE +  CLOUDY    77  70  78 S8G17     30.08F
LAFAYETTE      CLOUDY    77  70  79 SW10G22   30.02F
TERRE HAUTE    PTSUNNY   81  72  74 S12       30.06F

$$

INZ030>032-037>040-046>048-054>057-064-065-122300-
CENTRAL INDIANA

CITY           SKY/WX    TMP DP  RH WIND       PRES   REMARKS
COLUMBUS       PTSUNNY   82  70  65 SW14      30.08F
INDIANAPOLIS   CLOUDY    78  70  76 SW16      30.06F
-EAGLE CREEK   CLOUDY    78  68  71 SW13G22   30.06F
KOKOMO *+      CLOUDY    79  70  73 SW10      30.04S
MT COMFORT *+  CLOUDY    77  73  88 S10       30.07F
SHELBYVILLE    CLOUDY    80  71  74 S10       30.07F

$$

INZ033-034-041-042-049-050-058-059-122300-
EAST CENTRAL INDIANA

CITY           SKY/WX    TMP DP  RH WIND       PRES   REMARKS
MUNCIE         PTSUNNY   80  67  64 SW13G20   30.06S

$$

INZ060-061-067>069-081>083-085>088-122300-
SOUTHWEST INDIANA

CITY           SKY/WX    TMP DP  RH WIND       PRES   REMARKS
EVANSVILLE     PTSUNNY   84  72  67 S12       30.09F
HUNTINGBURG *+ CLOUDY    84  72  65 SW10      30.10S

$$

INZ062-063-066-070>080-084-089>092-122300-
SOUTH CENTRAL AND SOUTHEAST INDIANA

CITY           SKY/WX    TMP DP  RH WIND       PRES   REMARKS
BLOOMINGTON    PTSUNNY   80  70  71 SW10      30.09F

$$




USA.gov is the U.S. government's official web portal to all federal, state and local government web resources and services.